• en Suisse
  • Liste des pays
  • À 7 jours
  • Température de l'eau
  • Carte satellitaire
  • Carte météo
  • Widgets météo
  • user-avatar
    Se connecter

    Météo par heure à Tromsø

    Ce jour, 21 Septembre, Vendredi

    Heure Température Précipitation Vent Pression Humidité
    00:00 +7°C° 0.5 mm 8 m/s 724 mmHg 82%
    01:00 +7°C° 0.5 mm 9 m/s 725 mmHg 83%
    02:00 +6°C° 1 mm 9 m/s 725 mmHg 86%
    03:00 +6°C° 1 mm 9 m/s 725 mmHg 88%
    04:00 +6°C° 1 mm 10 m/s 725 mmHg 90%
    05:00 +6°C° 1 mm 10 m/s 725 mmHg 90%
    06:00 +7°C° 1 mm 10 m/s 725 mmHg 90%
    07:00 +7°C° 1 mm 11 m/s 726 mmHg 90%
    08:00 +7°C° 0.6 mm 11 m/s 726 mmHg 87%
    09:00 +7°C° 0.6 mm 12 m/s 727 mmHg 85%
    10:00 +7°C° 0.6 mm 12 m/s 727 mmHg 82%
    11:00 +7°C° 0.6 mm 11 m/s 728 mmHg 82%
    12:00 +7°C° 0.6 mm 11 m/s 728 mmHg 82%
    13:00 +7°C° 0.6 mm 10 m/s 729 mmHg 82%
    14:00 +7°C° 0.4 mm 9 m/s 729 mmHg 82%
    15:00 +7°C° 0.4 mm 9 m/s 730 mmHg 81%
    16:00 +7°C° 0.4 mm 8 m/s 730 mmHg 81%
    17:00 +8°C° 0.1 mm 7 m/s 730 mmHg 82%
    18:00 +7°C° 0.1 mm 6 m/s 730 mmHg 82%
    19:00 +6°C° 0.1 mm 5 m/s 731 mmHg 83%
    20:00 +6°C° 0 mm 4 m/s 731 mmHg 82%
    21:00 +5°C° 0 mm 3 m/s 730 mmHg 82%
    22:00 +6°C° 0 mm 2 m/s 730 mmHg 81%
    23:00 +5°C° 0 mm 3 m/s 730 mmHg 80%

    Demain, 22 Septembre, Samedi

    Heure Température Précipitation Vent Pression Humidité
    00:00 +7°C° 0 mm 3 m/s 729 mmHg 80%
    01:00 +7°C° 0 mm 3 m/s 728 mmHg 80%
    02:00 +6°C° 0.3 mm 4 m/s 728 mmHg 82%
    03:00 +6°C° 0.3 mm 4 m/s 727 mmHg 85%
    04:00 +6°C° 0.3 mm 5 m/s 726 mmHg 87%
    05:00 +6°C° 0.5 mm 4 m/s 725 mmHg 88%
    06:00 +6°C° 0.5 mm 4 m/s 724 mmHg 89%
    07:00 +6°C° 0.5 mm 4 m/s 723 mmHg 90%
    08:00 +7°C° 0.4 mm 4 m/s 722 mmHg 89%
    09:00 +8°C° 0.4 mm 4 m/s 721 mmHg 89%
    10:00 +10°C° 0.4 mm 4 m/s 721 mmHg 88%
    11:00 +9°C° 0.2 mm 5 m/s 720 mmHg 81%
    12:00 +10°C° 0.2 mm 6 m/s 720 mmHg 74%
    13:00 +11°C° 0.2 mm 7 m/s 719 mmHg 66%
    14:00 +10°C° 0 mm 6 m/s 719 mmHg 70%
    15:00 +10°C° 0 mm 5 m/s 719 mmHg 74%
    16:00 +10°C° 0 mm 4 m/s 718 mmHg 78%
    17:00 +9°C° 0 mm 3 m/s 718 mmHg 81%
    18:00 +9°C° 0 mm 3 m/s 717 mmHg 84%
    19:00 +8°C° 0 mm 3 m/s 717 mmHg 87%
    20:00 +7°C° 0 mm 3 m/s 717 mmHg 88%
    21:00 +7°C° 0 mm 2 m/s 716 mmHg 89%
    22:00 +7°C° 0 mm 2 m/s 716 mmHg 90%
    23:00 +7°C° 0 mm 2 m/s 716 mmHg 90%

    Après-demain, 23 Septembre, Dimanche

    Heure Température Précipitation Vent Pression Humidité
    00:00 +6°C° 0 mm 2 m/s 716 mmHg 90%
    01:00 +6°C° 0 mm 2 m/s 716 mmHg 90%
    02:00 +6°C° 0.2 mm 2 m/s 716 mmHg 91%
    03:00 +5°C° 0.2 mm 3 m/s 716 mmHg 92%
    04:00 +5°C° 0.2 mm 3 m/s 716 mmHg 92%
    05:00 +5°C° 0.5 mm 3 m/s 716 mmHg 92%
    06:00 +7°C° 0.5 mm 3 m/s 717 mmHg 93%
    07:00 +7°C° 0.5 mm 3 m/s 717 mmHg 93%
    08:00 +6°C° 0.8 mm 4 m/s 717 mmHg 91%
    09:00 +6°C° 0.8 mm 5 m/s 718 mmHg 89%
    10:00 +7°C° 0.8 mm 5 m/s 718 mmHg 88%
    11:00 +7°C° 0.2 mm 5 m/s 718 mmHg 84%
    12:00 +7°C° 0.2 mm 5 m/s 719 mmHg 80%
    13:00 +8°C° 0.2 mm 4 m/s 720 mmHg 77%
    14:00 +7°C° 2 mm 6 m/s 720 mmHg 82%
    15:00 +5°C° 2 mm 8 m/s 721 mmHg 87%
    16:00 +5°C° 2 mm 10 m/s 721 mmHg 91%
    17:00 +4°C° 1.5 mm 11 m/s 722 mmHg 90%
    18:00 +3°C° 1.5 mm 12 m/s 723 mmHg 89%
    19:00 +3°C° 1.5 mm 13 m/s 723 mmHg 88%
    20:00 +3°C° 1.1 mm 12 m/s 724 mmHg 90%
    21:00 +3°C° 1.1 mm 12 m/s 725 mmHg 92%
    22:00 +3°C° 1.1 mm 12 m/s 726 mmHg 94%
    23:00 +3°C° 2.2 mm 12 m/s 726 mmHg 93%

    24 Septembre, Lundi

    Heure Température Précipitation Vent Pression Humidité
    00:00 +3°C° 2.2 mm 12 m/s 727 mmHg 91%
    01:00 +3°C° 2.2 mm 12 m/s 728 mmHg 90%
    02:00 +1°C° 1 mm 13 m/s 729 mmHg 90%
    03:00 +1°C° 1 mm 13 m/s 730 mmHg 89%
    04:00 +1°C° 1 mm 14 m/s 731 mmHg 89%
    05:00 0°C° 0.6 mm 13 m/s 732 mmHg 89%
    06:00 0°C° 0.6 mm 13 m/s 733 mmHg 89%
    07:00 0°C° 0.6 mm 13 m/s 734 mmHg 89%
    08:00 0°C° 0.7 mm 12 m/s 735 mmHg 89%
    09:00 0°C° 0.7 mm 12 m/s 735 mmHg 89%
    10:00 -1°C° 0.7 mm 12 m/s 736 mmHg 89%
    11:00 -1°C° 0.4 mm 12 m/s 737 mmHg 87%
    12:00 -1°C° 0.4 mm 12 m/s 738 mmHg 86%
    13:00 -1°C° 0.4 mm 11 m/s 739 mmHg 84%
    14:00 -1°C° 0.3 mm 11 m/s 740 mmHg 84%
    15:00 -2°C° 0.3 mm 11 m/s 740 mmHg 84%
    16:00 -2°C° 0.3 mm 10 m/s 741 mmHg 84%
    17:00 -2°C° 0.2 mm 10 m/s 741 mmHg 84%
    18:00 -1°C° 0.2 mm 9 m/s 741 mmHg 85%
    19:00 -1°C° 0.2 mm 8 m/s 742 mmHg 85%
    20:00 -1°C° 0.3 mm 8 m/s 742 mmHg 85%
    21:00 -1°C° 0.3 mm 8 m/s 742 mmHg 85%
    22:00 -1°C° 0.3 mm 7 m/s 742 mmHg 86%
    23:00 -1°C° 0.3 mm 7 m/s 743 mmHg 86%

    25 Septembre, Mardi

    Heure Température Précipitation Vent Pression Humidité
    00:00 -1°C° 0.3 mm 7 m/s 743 mmHg 86%
    01:00 -1°C° 0.3 mm 6 m/s 743 mmHg 86%
    02:00 -2°C° 0.2 mm 6 m/s 743 mmHg 86%
    03:00 -1°C° 0.2 mm 5 m/s 744 mmHg 86%
    04:00 -1°C° 0.2 mm 5 m/s 744 mmHg 86%
    05:00 -1°C° 0.3 mm 5 m/s 744 mmHg 87%
    06:00 -1°C° 0.3 mm 4 m/s 745 mmHg 87%
    07:00 0°C° 0.3 mm 4 m/s 745 mmHg 88%
    08:00 0°C° 0.3 mm 4 m/s 746 mmHg 88%
    09:00 0°C° 0.3 mm 4 m/s 747 mmHg 88%
    10:00 0°C° 0.3 mm 4 m/s 747 mmHg 89%
    11:00 +1°C° 0.2 mm 4 m/s 748 mmHg 89%
    12:00 +1°C° 0.2 mm 4 m/s 748 mmHg 90%
    13:00 +1°C° 0.2 mm 4 m/s 749 mmHg 91%
    14:00 +1°C° 0.3 mm 4 m/s 749 mmHg 90%
    15:00 +1°C° 0.3 mm 4 m/s 750 mmHg 90%
    16:00 +1°C° 0.3 mm 4 m/s 750 mmHg 90%
    17:00 +1°C° 0.7 mm 4 m/s 750 mmHg 91%
    18:00 0°C° 0.7 mm 5 m/s 750 mmHg 92%
    19:00 0°C° 0.7 mm 5 m/s 751 mmHg 93%
    20:00 0°C° 0.5 mm 5 m/s 751 mmHg 92%
    21:00 0°C° 0.5 mm 4 m/s 751 mmHg 92%
    22:00 0°C° 0.5 mm 4 m/s 751 mmHg 92%
    23:00 0°C° 0.2 mm 4 m/s 751 mmHg 91%

    26 Septembre, Mercredi

    Heure Température Précipitation Vent Pression Humidité
    00:00 0°C° 0.2 mm 5 m/s 751 mmHg 91%
    01:00 0°C° 0.2 mm 5 m/s 750 mmHg 91%
    02:00 -1°C° 0.1 mm 5 m/s 750 mmHg 90%
    03:00 -1°C° 0.1 mm 5 m/s 749 mmHg 89%
    04:00 -2°C° 0.1 mm 6 m/s 749 mmHg 87%
    05:00 -2°C° 0.1 mm 6 m/s 748 mmHg 86%
    06:00 -1°C° 0.1 mm 6 m/s 747 mmHg 85%
    07:00 -1°C° 0.1 mm 6 m/s 747 mmHg 84%
    08:00 +1°C° 0.1 mm 6 m/s 746 mmHg 84%
    09:00 +1°C° 0.1 mm 6 m/s 745 mmHg 84%
    10:00 +2°C° 0.1 mm 6 m/s 744 mmHg 83%
    11:00 +2°C° 0.2 mm 7 m/s 743 mmHg 85%
    12:00 +2°C° 0.2 mm 7 m/s 741 mmHg 88%
    13:00 +1°C° 0.2 mm 8 m/s 740 mmHg 90%
    14:00 +1°C° 0.5 mm 8 m/s 739 mmHg 91%
    15:00 +1°C° 0.5 mm 8 m/s 738 mmHg 92%
    16:00 +2°C° 0.5 mm 8 m/s 737 mmHg 94%
    17:00 +2°C° 0.3 mm 8 m/s 737 mmHg 94%
    18:00 +2°C° 0.3 mm 8 m/s 737 mmHg 95%
    19:00 +3°C° 0.3 mm 7 m/s 737 mmHg 96%
    20:00 +3°C° 0.1 mm 7 m/s 737 mmHg 94%
    21:00 +2°C° 0.1 mm 7 m/s 737 mmHg 92%
    22:00 +2°C° 0.1 mm 6 m/s 737 mmHg 90%
    23:00 +2°C° 0.5 mm 6 m/s 737 mmHg 90%
    Voir plus